Flag for U.S.A. Weather past 2 weeks in Brattleboro, Vermont, U.S.A.

Now
73 °F

Sunny.


Feels Like: 76 °F
Forecast: 61 / 85 °F
Wind: 6 mph from Southwest

Location: Keene / Dillant

Current Time: Aug 31, 2015 at 8:33:28 PM

Latest Report: Aug 31, 2015 at 7:55 PM


Visibility: 10 mi

Pressure: 29.94 "Hg

Humidity: 65%

Dew point: 61 °F

Location of BrattleboroLocation

Historic Weather in Brattleboro — Graph

°F

Brattleboro temperature yesterday

Maximum temperature yesterday: 81 °F (at 1:35 PM)
Minimum temperature yesterday: 57 °F (at 3:35 AM)
Average temperature yesterday: 67 °F

Past Weeks' High & Low Weather Summary

 TemperatureHumidityPressure
High91 °F (Aug 18, 3:55 PM)94% (Aug 21, 2:35 AM)30.23 "Hg (Aug 21, 2:35 AM)
Low52 °F (Aug 28, 4:55 AM)38% (Aug 17, 3:15 PM)29.83 "Hg (Aug 25, 3:55 PM)
Average70 °F73%30.04 "Hg
* Reported Aug 16 7:15 PM — Aug 31 7:35 PM, Brattleboro, Weather by CustomWeather, © 2015

Note: Actual official high and low records may vary slightly from our data, if they occured in-between our weather recording intervals... More about our weather records

Advertising

Brattleboro weather history for previous 24 hours

 ConditionsComfort  
Time TempWeatherWind HumidityBarometerVisibility
7:35 PM
Mon, Aug 31
73 °FSunny.6 mph69%29.93 "Hg10 mi
7:15 PM79 °FSunny.5 mph54%29.93 "Hg10 mi
6:55 PM81 °FSunny.No wind51%29.93 "Hg10 mi
5:35 PM82 °FSunny.5 mph51%29.91 "Hg10 mi
5:15 PM84 °FScattered clouds.8 mph48%29.91 "Hg10 mi
4:55 PM82 °FPassing clouds.6 mph51%29.91 "Hg10 mi
4:35 PM84 °FSunny.5 mph48%29.91 "Hg10 mi
4:15 PM84 °FPassing clouds.6 mph48%29.91 "Hg10 mi
3:55 PM84 °FSunny.13 mph48%29.91 "Hg10 mi
3:35 PM84 °FSunny.9 mph45%29.91 "Hg10 mi
3:15 PM84 °FSunny.7 mph48%29.91 "Hg10 mi
2:55 PM84 °FSunny.8 mph48%29.92 "Hg10 mi
2:35 PM82 °FPassing clouds.13 mph51%29.93 "Hg10 mi
2:15 PM84 °FPassing clouds.8 mph48%29.94 "Hg10 mi
1:55 PM82 °FSunny.10 mph51%29.94 "Hg10 mi
1:35 PM82 °FPassing clouds.12 mph48%29.94 "Hg10 mi
1:15 PM82 °FScattered clouds.12 mph51%29.95 "Hg10 mi
12:55 PM82 °FOvercast.13 mph48%29.96 "Hg10 mi
12:35 PM82 °FPartly sunny.12 mph51%29.96 "Hg10 mi
12:15 PM82 °FBroken clouds.10 mph51%29.97 "Hg10 mi
11:55 AM81 °FScattered clouds.6 mph54%29.98 "Hg10 mi
11:35 AM81 °FScattered clouds.6 mph54%29.99 "Hg10 mi
11:15 AM79 °FPassing clouds.8 mph58%29.99 "Hg10 mi
10:55 AM79 °FSunny.5 mph58%29.99 "Hg10 mi
10:35 AM75 °FSunny.5 mph65%30.00 "Hg10 mi
10:15 AM73 °FSunny.5 mph69%30.01 "Hg10 mi
9:55 AM72 °FSunny.No wind73%30.01 "Hg10 mi
9:35 AM68 °FSunny.No wind78%30.01 "Hg10 mi
9:15 AM64 °FPartly sunny.No wind83%30.01 "Hg5 mi
8:55 AM64 °FLow clouds.5 mph78%30.01 "Hg1 mi
8:35 AM64 °FPartly sunny.3 mph78%30.01 "Hg4 mi
8:15 AM63 °FPartly sunny.No wind83%30.01 "Hg6 mi
7:55 AM61 °FPartly sunny.No wind83%30.01 "Hg5 mi
7:35 AM61 °FPartly sunny.No wind83%30.01 "Hg2 mi
7:15 AM61 °FLow clouds.3 mph83%30.02 "Hg2 mi
6:55 AM61 °FLow clouds.No wind83%30.01 "Hg0 mi
6:35 AM61 °FLow clouds.No wind83%30.01 "Hg0 mi
6:15 AM61 °FLow clouds.No wind83%30.01 "Hg0 mi
5:55 AM61 °FLow clouds.No wind83%30.01 "Hg0 mi
5:35 AM61 °FLow clouds.No wind83%30.00 "Hg0 mi
5:15 AM61 °FLow clouds.No wind88%30.00 "Hg0 mi
4:55 AM61 °FLow clouds.No wind88%30.00 "Hg0 mi
4:35 AM61 °FLow clouds.No wind88%30.01 "Hg0 mi
4:15 AM61 °FLow clouds.No wind88%30.01 "Hg0 mi
3:55 AM63 °FLow clouds.No wind83%30.01 "Hg1 mi
3:35 AM61 °FLow clouds.No wind88%30.01 "Hg1 mi
3:15 AM63 °FLow clouds.No wind83%30.01 "Hg3 mi
2:55 AM63 °FLow clouds.No wind83%30.01 "Hg1 mi
2:35 AM63 °FLow clouds.No wind83%30.02 "Hg1 mi
2:15 AM63 °FLow clouds.No wind83%30.02 "Hg1 mi
1:55 AM61 °FLow clouds.No wind88%30.02 "Hg1 mi
1:35 AM63 °FPassing clouds.No wind83%30.03 "Hg1 mi
1:15 AM63 °FPassing clouds.No wind83%30.03 "Hg1 mi
12:55 AM63 °FDense fog.No wind83%30.03 "Hg1 mi
12:35 AM63 °FDense fog.No wind83%30.03 "Hg1 mi
12:15 AM64 °FClear.No wind78%30.03 "Hg4 mi
11:35 PM
Sun, Aug 30
64 °FClear.No wind83%30.03 "Hg4 mi
11:15 PM64 °FClear.No wind83%30.04 "Hg5 mi
10:55 PM64 °FPassing clouds.No wind83%30.03 "Hg3 mi
10:35 PM66 °FPassing clouds.No wind83%30.04 "Hg7 mi
10:15 PM66 °FPassing clouds.No wind83%30.04 "Hg7 mi
9:55 PM66 °FClear.No wind83%30.04 "Hg8 mi
9:35 PM66 °FPassing clouds.No wind83%30.04 "Hg8 mi
9:15 PM66 °FPassing clouds.No wind83%30.04 "Hg10 mi
8:55 PM66 °FPassing clouds.No wind83%30.04 "Hg10 mi
8:35 PM68 °FClear.No wind78%30.04 "Hg10 mi
8:15 PM70 °FSunny.No wind73%30.03 "Hg10 mi
Weather by CustomWeather, © 2015

See weather overviewHow to use our weather pages